QPF
0.14 0.10 0.06 0.04 0.05 0.06 0.06 0.08 0.08 0.09 0.11 0.12 0.12 0.10 0.09 0.08 0.10 0.13 0.13 0.11 0.10 0.08 0.09 0.13 0.13 0.15 0.12 0.11 0.10 0.12 0.11 0.10 0.12 0.11 0.12 0.16 0.16 0.13 0.11 0.09 0.07 0.04 0.05
0.19 0.14 0.06 0.04 0.04 0.06 0.05 0.05 0.07 0.07 0.07 0.08 0.10 0.10 0.10 0.09 0.11 0.17 0.20 0.17 0.14 0.12 0.13 0.12 0.11 0.12 0.10 0.09 0.10 0.10 0.10 0.11 0.10 0.11 0.11 0.14 0.12 0.09 0.07 0.07 0.08 0.07 0.07
0.19 0.15 0.09 0.06 0.05 0.04 0.05 0.05 0.06 0.06 0.05 0.05 0.07 0.09 0.10 0.12 0.14 0.17 0.21 0.22 0.19 0.16 0.12 0.09 0.08 0.09 0.10 0.10 0.11 0.11 0.11 0.11 0.09 0.09 0.10 0.09 0.08 0.08 0.06 0.05 0.06 0.08 0.06
0.14 0.13 0.11 0.08 0.06 0.04 0.05 0.08 0.06 0.06 0.06 0.06 0.06 0.07 0.08 0.11 0.13 0.15 0.18 0.20 0.20 0.16 0.11 0.09 0.09 0.10 0.10 0.11 0.10 0.09 0.09 0.07 0.06 0.08 0.11 0.08 0.07 0.07 0.05 0.05 0.04 0.05 0.05
0.13 0.12 0.12 0.09 0.07 0.05 0.06 0.07 0.06 0.05 0.06 0.08 0.08 0.10 0.13 0.13 0.16 0.14 0.12 0.15 0.16 0.12 0.11 0.11 0.11 0.12 0.12 0.12 0.09 0.09 0.09 0.07 0.06 0.08 0.10 0.10 0.09 0.07 0.05 0.05 0.03 0.04 0.06
0.10 0.11 0.09 0.08 0.06 0.06 0.07 0.07 0.07 0.07 0.06 0.08 0.08 0.15 0.21 0.18 0.20 0.20 0.16 0.16 0.16 0.12 0.12 0.15 0.14 0.15 0.13 0.12 0.11 0.12 0.11 0.09 0.09 0.11 0.11 0.11 0.10 0.08 0.06 0.06 0.04 0.04 0.05
0.10 0.11 0.07 0.06 0.06 0.07 0.07 0.08 0.09 0.09 0.08 0.07 0.07 0.15 0.17 0.17 0.21 0.22 0.20 0.18 0.16 0.12 0.14 0.20 0.21 0.20 0.13 0.12 0.17 0.17 0.12 0.11 0.12 0.14 0.12 0.12 0.13 0.10 0.08 0.08 0.06 0.05 0.04
0.11 0.09 0.05 0.03 0.05 0.07 0.06 0.05 0.07 0.09 0.11 0.09 0.08 0.13 0.11 0.12 0.20 0.21 0.16 0.19 0.16 0.15 0.20 0.23 0.24 0.24 0.12 0.12 0.21 0.20 0.13 0.13 0.14 0.14 0.12 0.12 0.17 0.14 0.08 0.08 0.07 0.05 0.04
0.06 0.07 0.07 0.05 0.05 0.04 0.04 0.05 0.06 0.07 0.11 0.12 0.09 0.10 0.10 0.10 0.12 0.12 0.10 0.12 0.15 0.21 0.25 0.24 0.25 0.21 0.11 0.13 0.21 0.20 0.14 0.14 0.13 0.13 0.11 0.11 0.15 0.14 0.08 0.08 0.08 0.06 0.06
0.04 0.04 0.06 0.06 0.04 0.04 0.04 0.05 0.06 0.06 0.07 0.11 0.11 0.09 0.10 0.11 0.10 0.08 0.07 0.09 0.14 0.18 0.21 0.24 0.22 0.18 0.13 0.18 0.23 0.20 0.17 0.14 0.12 0.11 0.09 0.09 0.10 0.11 0.11 0.10 0.10 0.09 0.09
0.03 0.03 0.05 0.03 0.04 0.05 0.04 0.05 0.05 0.05 0.07 0.10 0.12 0.11 0.12 0.12 0.10 0.09 0.07 0.08 0.10 0.11 0.13 0.19 0.19 0.16 0.19 0.24 0.21 0.21 0.20 0.12 0.10 0.09 0.08 0.09 0.11 0.12 0.14 0.15 0.14 0.13 0.11
0.03 0.03 0.05 0.04 0.04 0.05 0.02 0.05 0.07 0.07 0.08 0.09 0.12 0.13 0.12 0.10 0.10 0.09 0.09 0.09 0.10 0.11 0.12 0.16 0.16 0.14 0.16 0.18 0.16 0.18 0.15 0.08 0.08 0.08 0.08 0.11 0.13 0.13 0.15 0.16 0.15 0.13 0.10
0.04 0.04 0.06 0.05 0.05 0.03 0.03 0.04 0.06 0.06 0.06 0.07 0.09 0.11 0.09 0.07 0.08 0.08 0.10 0.11 0.11 0.10 0.11 0.13 0.17 0.14 0.13 0.12 0.10 0.09 0.07 0.07 0.08 0.11 0.10 0.10 0.10 0.10 0.11 0.12 0.14 0.13 0.11
0.03 0.04 0.05 0.06 0.04 0.04 0.03 0.04 0.04 0.03 0.03 0.05 0.05 0.07 0.08 0.06 0.05 0.06 0.07 0.06 0.06 0.06 0.07 0.08 0.11 0.11 0.10 0.07 0.05 0.05 0.07 0.10 0.08 0.08 0.06 0.05 0.05 0.05 0.05 0.07 0.09 0.10 0.10
0.02 0.02 0.04 0.05 0.03 0.03 0.04 0.04 0.04 0.03 0.02 0.02 0.03 0.04 0.06 0.07 0.07 0.06 0.06 0.07 0.08 0.08 0.09 0.09 0.09 0.08 0.07 0.05 0.03 0.03 0.05 0.06 0.08 0.09 0.06 0.04 0.04 0.04 0.03 0.04 0.05 0.05 0.05
0.01 0.02 0.03 0.04 0.03 0.03 0.03 0.03 0.03 0.03 0.02 0.02 0.02 0.04 0.06 0.08 0.11 0.11 0.11 0.11 0.10 0.09 0.07 0.07 0.06 0.05 0.04 0.03 0.02 0.02 0.02 0.03 0.05 0.05 0.04 0.04 0.03 0.03 0.03 0.04 0.05 0.05 0.05
0.01 0.02 0.03 0.03 0.02 0.02 0.02 0.02 0.02 0.03 0.03 0.03 0.03 0.03 0.05 0.06 0.09 0.10 0.10 0.08 0.06 0.06 0.05 0.06 0.05 0.04 0.03 0.02 0.02 0.02 0.02 0.02 0.02 0.02 0.03 0.05 0.05 0.04 0.03 0.03 0.04 0.04 0.05
0.01 0.01 0.02 0.03 0.02 0.02 0.02 0.01 0.02 0.02 0.02 0.02 0.02 0.03 0.03 0.03 0.04 0.07 0.08 0.08 0.07 0.06 0.05 0.05 0.05 0.03 0.03 0.02 0.02 0.02 0.01 0.02 0.02 0.03 0.03 0.04 0.04 0.04 0.03 0.02 0.03 0.03 0.04
0.01 0.01 0.02 0.04 0.04 0.03 0.02 0.02 0.01 0.01 0.02 0.02 0.02 0.03 0.03 0.02 0.02 0.02 0.04 0.05 0.05 0.04 0.03 0.03 0.04 0.05 0.05 0.03 0.02 0.02 0.01 0.02 0.03 0.04 0.03 0.03 0.03 0.04 0.05 0.04 0.03 0.02 0.02
0.01 0.01 0.02 0.03 0.04 0.02 0.02 0.02 0.03 0.03 0.02 0.02 0.02 0.03 0.02 0.02 0.02 0.03 0.05 0.04 0.03 0.04 0.04 0.05 0.05 0.06 0.05 0.04 0.02 0.02 0.01 0.01 0.01 0.02 0.03 0.03 0.03 0.03 0.04 0.05 0.06 0.04 0.03
0.01 0.01 0.02 0.03 0.03 0.02 0.03 0.03 0.03 0.03 0.02 0.02 0.02 0.03 0.03 0.03 0.03 0.05 0.04 0.05 0.04 0.03 0.04 0.04 0.05 0.06 0.06 0.05 0.05 0.04 0.02 0.02 0.01 0.01 0.01 0.01 0.02 0.03 0.03 0.04 0.04 0.04 0.03
0.03 0.02 0.03 0.04 0.03 0.02 0.03 0.03 0.02 0.02 0.02 0.03 0.03 0.04 0.03 0.03 0.03 0.03 0.05 0.05 0.04 0.05 0.05 0.05 0.07 0.07 0.07 0.07 0.08 0.08 0.07 0.06 0.03 0.01 0.01 0.01 0.02 0.03 0.04 0.04 0.04 0.05 0.04
0.02 0.02 0.03 0.03 0.04 0.04 0.04 0.02 0.02 0.02 0.03 0.04 0.04 0.05 0.04 0.03 0.02 0.03 0.04 0.05 0.05 0.05 0.06 0.07 0.08 0.09 0.10 0.09 0.08 0.07 0.08 0.08 0.04 0.02 0.02 0.03 0.03 0.04 0.04 0.05 0.06 0.09 0.08
0.01 0.02 0.03 0.04 0.05 0.03 0.03 0.03 0.03 0.03 0.05 0.05 0.04 0.04 0.04 0.03 0.02 0.02 0.03 0.04 0.04 0.05 0.06 0.06 0.08 0.08 0.09 0.08 0.08 0.06 0.05 0.06 0.05 0.05 0.05 0.04 0.04 0.04 0.03 0.03 0.04 0.04 0.05
0.01 0.01 0.03 0.06 0.06 0.04 0.03 0.04 0.04 0.04 0.05 0.05 0.05 0.05 0.04 0.03 0.03 0.02 0.02 0.03 0.04 0.06 0.06 0.06 0.08 0.07 0.06 0.06 0.06 0.06 0.06 0.05 0.05 0.05 0.05 0.06 0.05 0.04 0.02 0.02 0.02 0.03 0.03
0.02 0.01 0.02 0.05 0.06 0.05 0.04 0.04 0.04 0.05 0.05 0.06 0.08 0.08 0.06 0.05 0.04 0.03 0.03 0.04 0.04 0.06 0.05 0.05 0.05 0.05 0.05 0.05 0.05 0.07 0.06 0.06 0.05 0.05 0.05 0.05 0.06 0.04 0.02 0.01 0.01 0.01 0.02
MSLP
1008.93 1008.49 1008.22 1008.15 1008.20 1008.27 1008.26 1008.09 1007.72 1007.18 1006.53 1005.89 1005.34 1004.94 1004.70 1004.62 1004.62 1004.68 1004.74 1004.78 1004.81 1004.85 1004.92 1005.05 1005.23 1005.46 1005.73 1006.03 1006.34 1006.68 1007.07 1007.51 1008.01 1008.57 1009.18 1009.80 1010.41 1011.00 1011.55 1012.06 1012.54 1012.99 1013.40
1008.80 1008.38 1008.15 1008.14 1008.26 1008.41 1008.47 1008.36 1008.03 1007.52 1006.90 1006.28 1005.74 1005.36 1005.16 1005.10 1005.14 1005.22 1005.29 1005.34 1005.36 1005.39 1005.46 1005.58 1005.77 1006.03 1006.34 1006.67 1007.02 1007.39 1007.77 1008.19 1008.64 1009.14 1009.66 1010.20 1010.73 1011.24 1011.71 1012.15 1012.57 1012.96 1013.31
1008.59 1008.19 1008.02 1008.07 1008.26 1008.49 1008.62 1008.58 1008.32 1007.88 1007.32 1006.75 1006.27 1005.93 1005.74 1005.69 1005.72 1005.78 1005.83 1005.85 1005.86 1005.88 1005.95 1006.10 1006.33 1006.63 1006.98 1007.35 1007.72 1008.09 1008.46 1008.83 1009.24 1009.66 1010.12 1010.58 1011.03 1011.46 1011.86 1012.22 1012.57 1012.89 1013.20
1008.29 1007.94 1007.83 1007.95 1008.21 1008.50 1008.71 1008.74 1008.57 1008.22 1007.76 1007.29 1006.88 1006.60 1006.44 1006.40 1006.41 1006.44 1006.45 1006.44 1006.42 1006.44 1006.52 1006.69 1006.95 1007.28 1007.65 1008.03 1008.39 1008.73 1009.06 1009.38 1009.72 1010.09 1010.48 1010.88 1011.27 1011.64 1011.97 1012.27 1012.55 1012.82 1013.08
1007.94 1007.65 1007.61 1007.79 1008.11 1008.46 1008.73 1008.83 1008.75 1008.50 1008.16 1007.80 1007.49 1007.29 1007.19 1007.16 1007.17 1007.17 1007.15 1007.11 1007.07 1007.09 1007.17 1007.36 1007.63 1007.96 1008.31 1008.66 1008.97 1009.25 1009.51 1009.77 1010.05 1010.37 1010.72 1011.08 1011.43 1011.75 1012.04 1012.29 1012.52 1012.74 1012.98
1007.61 1007.38 1007.40 1007.63 1008.00 1008.38 1008.69 1008.84 1008.83 1008.67 1008.43 1008.19 1008.00 1007.89 1007.86 1007.87 1007.89 1007.88 1007.84 1007.79 1007.74 1007.75 1007.84 1008.02 1008.28 1008.58 1008.89 1009.16 1009.40 1009.59 1009.77 1009.96 1010.19 1010.47 1010.80 1011.15 1011.49 1011.80 1012.06 1012.28 1012.47 1012.66 1012.88
1007.37 1007.20 1007.26 1007.53 1007.91 1008.30 1008.60 1008.76 1008.78 1008.69 1008.54 1008.39 1008.31 1008.29 1008.33 1008.39 1008.44 1008.44 1008.41 1008.35 1008.31 1008.32 1008.41 1008.58 1008.81 1009.06 1009.29 1009.48 1009.62 1009.71 1009.81 1009.94 1010.13 1010.39 1010.72 1011.08 1011.44 1011.76 1012.02 1012.23 1012.40 1012.57 1012.78
1007.30 1007.16 1007.26 1007.53 1007.88 1008.23 1008.49 1008.62 1008.63 1008.55 1008.45 1008.38 1008.37 1008.43 1008.53 1008.64 1008.73 1008.75 1008.73 1008.69 1008.66 1008.68 1008.77 1008.93 1009.12 1009.32 1009.48 1009.57 1009.62 1009.63 1009.65 1009.73 1009.90 1010.16 1010.51 1010.91 1011.29 1011.64 1011.92 1012.13 1012.30 1012.46 1012.67
1007.42 1007.31 1007.41 1007.65 1007.95 1008.22 1008.39 1008.45 1008.41 1008.31 1008.22 1008.18 1008.22 1008.33 1008.48 1008.63 1008.73 1008.79 1008.78 1008.76 1008.75 1008.78 1008.87 1009.01 1009.18 1009.33 1009.42 1009.45 1009.42 1009.37 1009.34 1009.39 1009.55 1009.83 1010.21 1010.64 1011.07 1011.45 1011.76 1011.99 1012.16 1012.33 1012.53
1007.73 1007.64 1007.72 1007.92 1008.13 1008.30 1008.36 1008.32 1008.20 1008.04 1007.93 1007.89 1007.94 1008.07 1008.25 1008.41 1008.53 1008.59 1008.60 1008.59 1008.58 1008.62 1008.72 1008.86 1009.01 1009.13 1009.18 1009.17 1009.09 1009.00 1008.95 1008.99 1009.15 1009.45 1009.86 1010.33 1010.80 1011.22 1011.55 1011.80 1011.99 1012.16 1012.35
1008.20 1008.12 1008.18 1008.31 1008.43 1008.48 1008.42 1008.27 1008.05 1007.84 1007.68 1007.62 1007.67 1007.79 1007.96 1008.12 1008.24 1008.29 1008.29 1008.27 1008.27 1008.31 1008.40 1008.53 1008.67 1008.78 1008.82 1008.79 1008.70 1008.60 1008.54 1008.58 1008.75 1009.07 1009.50 1010.00 1010.50 1010.95 1011.31 1011.58 1011.78 1011.95 1012.15
1008.77 1008.69 1008.72 1008.78 1008.81 1008.75 1008.58 1008.33 1008.03 1007.75 1007.55 1007.46 1007.49 1007.60 1007.75 1007.89 1007.97 1008.00 1007.97 1007.93 1007.91 1007.93 1008.02 1008.14 1008.27 1008.38 1008.42 1008.39 1008.31 1008.22 1008.17 1008.21 1008.39 1008.70 1009.14 1009.64 1010.15 1010.62 1011.01 1011.30 1011.52 1011.71 1011.90
1009.34 1009.28 1009.28 1009.29 1009.24 1009.09 1008.83 1008.49 1008.13 1007.81 1007.58 1007.47 1007.48 1007.56 1007.69 1007.79 1007.84 1007.82 1007.76 1007.68 1007.62 1007.61 1007.66 1007.77 1007.89 1007.99 1008.04 1008.02 1007.96 1007.88 1007.83 1007.88 1008.04 1008.34 1008.76 1009.25 1009.75 1010.22 1010.63 1010.95 1011.20 1011.40 1011.60
1009.86 1009.81 1009.80 1009.77 1009.65 1009.43 1009.11 1008.72 1008.33 1007.98 1007.75 1007.63 1007.62 1007.69 1007.78 1007.85 1007.86 1007.80 1007.69 1007.56 1007.45 1007.40 1007.41 1007.48 1007.58 1007.67 1007.72 1007.71 1007.65 1007.58 1007.54 1007.57 1007.70 1007.97 1008.34 1008.79 1009.27 1009.73 1010.14 1010.49 1010.77 1011.00 1011.22
1010.26 1010.23 1010.21 1010.14 1009.98 1009.72 1009.36 1008.96 1008.56 1008.23 1008.00 1007.89 1007.88 1007.93 1008.00 1008.03 1008.00 1007.91 1007.75 1007.57 1007.42 1007.32 1007.28 1007.31 1007.37 1007.43 1007.46 1007.44 1007.39 1007.31 1007.25 1007.25 1007.34 1007.55 1007.85 1008.24 1008.67 1009.11 1009.52 1009.89 1010.21 1010.49 1010.74
1010.52 1010.51 1010.48 1010.38 1010.19 1009.90 1009.54 1009.15 1008.77 1008.46 1008.26 1008.16 1008.16 1008.20 1008.25 1008.26 1008.21 1008.08 1007.89 1007.69 1007.50 1007.35 1007.26 1007.23 1007.24 1007.26 1007.26 1007.22 1007.15 1007.05 1006.96 1006.92 1006.94 1007.07 1007.29 1007.59 1007.96 1008.35 1008.75 1009.14 1009.49 1009.82 1010.12
1010.66 1010.65 1010.60 1010.48 1010.26 1009.97 1009.62 1009.26 1008.92 1008.65 1008.48 1008.40 1008.39 1008.43 1008.46 1008.46 1008.39 1008.25 1008.06 1007.84 1007.62 1007.45 1007.32 1007.24 1007.20 1007.17 1007.13 1007.05 1006.94 1006.81 1006.68 1006.57 1006.52 1006.55 1006.67 1006.87 1007.15 1007.48 1007.85 1008.23 1008.61 1008.99 1009.35
1010.71 1010.68 1010.61 1010.46 1010.23 1009.95 1009.63 1009.31 1009.02 1008.79 1008.65 1008.58 1008.57 1008.59 1008.60 1008.58 1008.51 1008.37 1008.19 1007.98 1007.77 1007.59 1007.44 1007.32 1007.23 1007.15 1007.06 1006.94 1006.79 1006.62 1006.43 1006.26 1006.12 1006.05 1006.05 1006.13 1006.30 1006.54 1006.85 1007.21 1007.61 1008.02 1008.43
1010.72 1010.66 1010.55 1010.37 1010.15 1009.88 1009.61 1009.34 1009.11 1008.92 1008.80 1008.74 1008.71 1008.70 1008.69 1008.65 1008.58 1008.46 1008.30 1008.13 1007.95 1007.78 1007.62 1007.49 1007.36 1007.24 1007.10 1006.94 1006.74 1006.52 1006.29 1006.05 1005.82 1005.63 1005.51 1005.46 1005.49 1005.62 1005.85 1006.15 1006.53 1006.96 1007.42
1010.71 1010.62 1010.47 1010.28 1010.07 1009.84 1009.62 1009.42 1009.25 1009.12 1009.01 1008.94 1008.89 1008.84 1008.79 1008.73 1008.65 1008.55 1008.43 1008.30 1008.16 1008.02 1007.89 1007.75 1007.60 1007.44 1007.27 1007.07 1006.83 1006.57 1006.29 1005.98 1005.67 1005.38 1005.12 1004.93 1004.82 1004.81 1004.91 1005.13 1005.46 1005.88 1006.36
1010.73 1010.60 1010.43 1010.24 1010.05 1009.88 1009.73 1009.61 1009.51 1009.43 1009.35 1009.26 1009.17 1009.07 1008.97 1008.87 1008.78 1008.70 1008.62 1008.54 1008.45 1008.36 1008.25 1008.11 1007.96 1007.78 1007.58 1007.34 1007.08 1006.79 1006.47 1006.11 1005.73 1005.34 1004.96 1004.61 1004.35 1004.18 1004.14 1004.25 1004.50 1004.87 1005.35
1010.77 1010.62 1010.44 1010.27 1010.13 1010.04 1009.98 1009.95 1009.93 1009.90 1009.83 1009.73 1009.60 1009.44 1009.29 1009.15 1009.04 1008.96 1008.91 1008.87 1008.83 1008.78 1008.70 1008.58 1008.42 1008.22 1008.00 1007.75 1007.47 1007.17 1006.82 1006.43 1005.99 1005.52 1005.03 1004.55 1004.13 1003.80 1003.61 1003.58 1003.71 1004.01 1004.45
1010.81 1010.66 1010.50 1010.37 1010.31 1010.30 1010.35 1010.42 1010.48 1010.50 1010.45 1010.34 1010.16 1009.96 1009.74 1009.56 1009.42 1009.33 1009.30 1009.29 1009.29 1009.26 1009.20 1009.09 1008.93 1008.72 1008.49 1008.23 1007.94 1007.63 1007.29 1006.88 1006.42 1005.89 1005.32 1004.74 1004.18 1003.71 1003.35 1003.17 1003.17 1003.36 1003.72
1010.82 1010.70 1010.59 1010.53 1010.54 1010.64 1010.79 1010.96 1011.10 1011.17 1011.15 1011.02 1010.81 1010.55 1010.29 1010.05 1009.88 1009.78 1009.75 1009.75 1009.76 1009.75 1009.70 1009.58 1009.41 1009.19 1008.95 1008.68 1008.41 1008.11 1007.79 1007.40 1006.94 1006.40 1005.79 1005.13 1004.48 1003.87 1003.38 1003.04 1002.90 1002.96 1003.21
1010.80 1010.73 1010.67 1010.69 1010.79 1010.98 1011.23 1011.48 1011.69 1011.80 1011.80 1011.67 1011.44 1011.14 1010.83 1010.56 1010.36 1010.24 1010.20 1010.19 1010.20 1010.19 1010.12 1009.98 1009.79 1009.56 1009.30 1009.04 1008.78 1008.52 1008.23 1007.89 1007.47 1006.96 1006.35 1005.66 1004.95 1004.25 1003.64 1003.17 1002.88 1002.79 1002.91
1010.74 1010.72 1010.74 1010.83 1011.01 1011.28 1011.60 1011.91 1012.17 1012.31 1012.32 1012.19 1011.94 1011.63 1011.30 1011.01 1010.79 1010.65 1010.59 1010.57 1010.56 1010.52 1010.42 1010.26 1010.04 1009.78 1009.51 1009.25 1009.01 1008.79 1008.56 1008.28 1007.93 1007.48 1006.91 1006.25 1005.52 1004.78 1004.09 1003.50 1003.08 1002.84 1002.80
Thickness
5801 5800 5798 5798 5798 5799 5799 5798 5798 5797 5796 5795 5795 5794 5793 5791 5791 5790 5790 5788 5787 5785 5783 5782 5781 5780 5779 5778 5776 5775 5773 5772 5770 5769 5768 5767 5765 5764 5764 5763 5763 5762 5760
5804 5801 5799 5799 5799 5799 5798 5798 5797 5796 5795 5795 5794 5793 5792 5790 5789 5789 5787 5786 5784 5783 5782 5780 5779 5778 5777 5776 5775 5773 5772 5770 5768 5767 5766 5765 5764 5762 5761 5761 5761 5759 5757
5806 5803 5800 5799 5798 5798 5797 5797 5796 5796 5795 5794 5793 5792 5791 5789 5788 5787 5786 5784 5783 5781 5780 5779 5778 5777 5775 5774 5772 5771 5770 5768 5767 5766 5765 5764 5763 5761 5760 5759 5758 5756 5755
5808 5804 5800 5798 5797 5797 5796 5796 5796 5795 5794 5793 5792 5791 5790 5788 5787 5785 5784 5782 5781 5780 5779 5778 5777 5775 5773 5772 5770 5769 5768 5767 5766 5765 5764 5763 5762 5760 5759 5757 5756 5755 5753
5808 5803 5798 5797 5796 5796 5795 5794 5794 5794 5793 5792 5791 5790 5789 5788 5786 5785 5783 5781 5780 5779 5778 5777 5775 5774 5772 5770 5769 5768 5767 5766 5765 5764 5764 5763 5761 5759 5757 5756 5754 5753 5752
5807 5803 5798 5796 5795 5795 5794 5794 5793 5793 5792 5791 5790 5789 5788 5787 5785 5783 5782 5781 5779 5778 5777 5775 5774 5773 5771 5770 5768 5767 5766 5765 5764 5764 5764 5762 5759 5758 5757 5755 5753 5752 5750
5807 5803 5798 5796 5795 5794 5793 5792 5792 5791 5791 5790 5789 5788 5788 5787 5785 5782 5781 5780 5778 5777 5776 5775 5773 5772 5771 5769 5769 5767 5766 5765 5764 5764 5763 5761 5759 5758 5757 5755 5753 5751 5749
5808 5804 5799 5796 5794 5793 5792 5791 5790 5790 5789 5789 5788 5787 5787 5787 5784 5782 5780 5778 5777 5776 5775 5774 5773 5772 5772 5770 5769 5767 5766 5765 5765 5764 5762 5760 5759 5757 5757 5756 5753 5751 5749
5809 5806 5801 5797 5794 5793 5791 5790 5789 5788 5788 5787 5787 5786 5786 5785 5783 5781 5778 5777 5776 5775 5774 5774 5773 5773 5774 5771 5768 5767 5766 5764 5763 5763 5762 5760 5758 5757 5756 5755 5753 5750 5748
5809 5806 5804 5800 5797 5794 5791 5789 5788 5787 5787 5786 5786 5785 5785 5784 5782 5780 5778 5777 5776 5775 5774 5773 5772 5773 5773 5771 5767 5766 5765 5764 5764 5763 5761 5759 5758 5756 5755 5754 5752 5750 5748
5805 5805 5804 5801 5799 5796 5793 5790 5788 5786 5785 5785 5785 5784 5783 5783 5782 5779 5778 5777 5775 5774 5774 5773 5772 5771 5771 5769 5768 5766 5765 5765 5765 5764 5761 5758 5757 5756 5754 5752 5751 5750 5748
5799 5801 5802 5799 5798 5797 5795 5790 5789 5787 5785 5785 5784 5783 5782 5782 5781 5780 5778 5776 5774 5774 5774 5772 5771 5771 5770 5769 5768 5766 5766 5766 5765 5763 5760 5758 5757 5755 5753 5752 5750 5749 5748
5799 5800 5800 5798 5797 5796 5794 5791 5790 5788 5786 5785 5784 5783 5782 5782 5780 5779 5777 5775 5774 5774 5773 5773 5772 5771 5771 5770 5769 5768 5768 5768 5766 5763 5760 5758 5757 5755 5753 5751 5750 5749 5747
5800 5799 5799 5798 5795 5794 5793 5792 5790 5788 5786 5785 5784 5783 5782 5781 5780 5778 5777 5776 5775 5774 5774 5773 5773 5773 5772 5772 5771 5770 5769 5768 5766 5763 5760 5758 5757 5754 5753 5751 5750 5748 5746
5799 5798 5797 5796 5794 5792 5791 5790 5790 5789 5787 5785 5783 5781 5781 5779 5778 5777 5776 5775 5775 5774 5773 5773 5773 5772 5772 5772 5772 5771 5769 5768 5766 5764 5760 5759 5757 5755 5753 5751 5749 5748 5746
5801 5798 5798 5796 5793 5791 5790 5789 5789 5788 5786 5784 5782 5780 5779 5778 5776 5775 5774 5774 5773 5773 5773 5773 5772 5772 5771 5771 5771 5770 5769 5768 5767 5764 5762 5759 5757 5755 5754 5752 5750 5748 5746
5802 5800 5798 5796 5794 5791 5789 5788 5788 5787 5785 5783 5781 5780 5778 5777 5776 5775 5773 5772 5772 5772 5773 5773 5773 5772 5771 5770 5769 5769 5768 5768 5767 5765 5763 5760 5758 5755 5754 5752 5750 5748 5747
5804 5800 5799 5799 5794 5791 5789 5788 5788 5787 5785 5783 5781 5780 5778 5777 5776 5775 5773 5772 5773 5773 5773 5772 5770 5770 5769 5767 5766 5767 5767 5766 5766 5765 5764 5762 5760 5757 5754 5752 5751 5749 5747
5805 5801 5798 5797 5794 5791 5790 5789 5788 5786 5785 5783 5782 5780 5778 5777 5776 5775 5773 5773 5773 5773 5772 5771 5769 5767 5765 5765 5764 5765 5765 5765 5765 5765 5764 5763 5761 5759 5756 5753 5751 5749 5748
5808 5804 5800 5797 5794 5793 5791 5789 5788 5787 5785 5784 5782 5780 5778 5777 5776 5775 5773 5773 5773 5772 5770 5769 5767 5767 5766 5764 5764 5764 5764 5765 5765 5764 5763 5762 5762 5759 5757 5755 5752 5749 5748
5809 5804 5801 5797 5795 5793 5791 5788 5785 5783 5784 5784 5783 5781 5779 5778 5777 5776 5774 5773 5772 5770 5769 5768 5767 5765 5764 5764 5760 5757 5760 5763 5763 5763 5763 5761 5761 5759 5758 5755 5752 5750 5747
5809 5805 5802 5799 5797 5795 5793 5791 5789 5787 5786 5785 5784 5782 5780 5779 5778 5777 5774 5773 5772 5770 5768 5767 5766 5763 5763 5764 5758 5752 5748 5751 5757 5762 5761 5759 5758 5758 5756 5755 5752 5750 5748
5811 5807 5805 5801 5799 5797 5796 5794 5791 5789 5787 5784 5782 5782 5781 5780 5778 5776 5775 5773 5772 5770 5766 5766 5766 5763 5759 5762 5762 5754 5745 5741 5746 5754 5757 5757 5756 5755 5754 5753 5751 5748 5746
5815 5813 5808 5804 5801 5799 5797 5794 5790 5786 5782 5783 5784 5783 5782 5781 5779 5777 5775 5774 5772 5770 5767 5767 5767 5765 5761 5758 5759 5759 5756 5752 5743 5741 5748 5753 5753 5752 5752 5752 5749 5747 5745
5820 5815 5811 5806 5802 5800 5797 5794 5791 5788 5786 5786 5785 5783 5781 5781 5780 5778 5776 5774 5772 5769 5768 5767 5765 5763 5762 5758 5756 5756 5755 5753 5750 5741 5738 5742 5746 5749 5750 5749 5748 5746 5744
5822 5818 5813 5806 5802 5800 5797 5795 5791 5788 5787 5784 5782 5780 5780 5780 5779 5777 5776 5773 5771 5769 5767 5765 5764 5762 5760 5758 5756 5755 5752 5749 5746 5744 5738 5738 5739 5743 5747 5747 5746 5745 5743